• In Hungary
  • List of Countries
  • For 7 days
  • Water Temperature
  • Satellite Maps
  • Weather Map
  • News
  • Weather Widgets
  • user-avatar
    Login

    Hourly Weather Sagan-Nur

    Today, 19 June, Tuesday

    Time Temperature Precipitation Wind Pressure Humidity
    00:00 +9°C° 0 mm 2 mps 574 mmHg 54%
    01:00 +8°C° 0 mm 2 mps 574 mmHg 56%
    02:00 +8°C° 0 mm 2 mps 574 mmHg 57%
    03:00 +8°C° 0 mm 2 mps 573 mmHg 58%
    04:00 +8°C° 0 mm 2 mps 573 mmHg 59%
    05:00 +9°C° 0 mm 2 mps 574 mmHg 57%
    06:00 +10°C° 0 mm 2 mps 574 mmHg 56%
    07:00 +12°C° 0 mm 2 mps 574 mmHg 54%
    08:00 +14°C° 0 mm 2 mps 575 mmHg 51%
    09:00 +15°C° 0 mm 2 mps 575 mmHg 48%
    10:00 +16°C° 0 mm 2 mps 575 mmHg 45%
    11:00 +18°C° 0 mm 3 mps 575 mmHg 41%
    12:00 +19°C° 0 mm 3 mps 576 mmHg 37%
    13:00 +21°C° 0 mm 3 mps 576 mmHg 33%
    14:00 +21°C° 0 mm 3 mps 576 mmHg 34%
    15:00 +21°C° 0 mm 2 mps 576 mmHg 36%
    16:00 +21°C° 0 mm 2 mps 576 mmHg 37%
    17:00 +18°C° 1.1 mm 2 mps 575 mmHg 49%
    18:00 +16°C° 1.1 mm 3 mps 574 mmHg 61%
    19:00 +13°C° 1.1 mm 3 mps 573 mmHg 74%
    20:00 +12°C° 1.3 mm 3 mps 573 mmHg 79%
    21:00 +12°C° 1.3 mm 2 mps 573 mmHg 83%
    22:00 +10°C° 1.3 mm 2 mps 573 mmHg 88%
    23:00 +10°C° 0.2 mm 2 mps 573 mmHg 89%

    Tomorrow, 20 June, Wednesday

    Time Temperature Precipitation Wind Pressure Humidity
    00:00 +10°C° 0.2 mm 2 mps 572 mmHg 89%
    01:00 +10°C° 0.2 mm 1 mps 572 mmHg 90%
    02:00 +10°C° 0 mm 1 mps 572 mmHg 90%
    03:00 +9°C° 0 mm 1 mps 572 mmHg 91%
    04:00 +9°C° 0 mm 1 mps 572 mmHg 91%
    05:00 +10°C° 0.3 mm 1 mps 572 mmHg 88%
    06:00 +11°C° 0.3 mm 1 mps 573 mmHg 85%
    07:00 +12°C° 0.3 mm 1 mps 573 mmHg 82%
    08:00 +12°C° 0.4 mm 2 mps 573 mmHg 77%
    09:00 +13°C° 0.4 mm 2 mps 574 mmHg 71%
    10:00 +14°C° 0.4 mm 2 mps 574 mmHg 66%
    11:00 +14°C° 0.1 mm 3 mps 575 mmHg 60%
    12:00 +16°C° 0.1 mm 3 mps 575 mmHg 54%
    13:00 +17°C° 0.1 mm 4 mps 575 mmHg 48%
    14:00 +17°C° 0 mm 4 mps 575 mmHg 47%
    15:00 +17°C° 0 mm 4 mps 575 mmHg 46%
    16:00 +18°C° 0 mm 4 mps 575 mmHg 44%
    17:00 +17°C° 0 mm 4 mps 575 mmHg 47%
    18:00 +16°C° 0 mm 3 mps 575 mmHg 50%
    19:00 +16°C° 0 mm 3 mps 575 mmHg 53%
    20:00 +14°C° 0 mm 2 mps 574 mmHg 62%
    21:00 +12°C° 0 mm 2 mps 574 mmHg 71%
    22:00 +10°C° 0 mm 1 mps 573 mmHg 79%
    23:00 +10°C° 0.1 mm 1 mps 573 mmHg 82%

    Day after tomorrow, 21 June, Thursday

    Time Temperature Precipitation Wind Pressure Humidity
    00:00 +9°C° 0.1 mm 1 mps 573 mmHg 85%
    01:00 +9°C° 0.1 mm 1 mps 572 mmHg 87%
    02:00 +8°C° 0.2 mm 1 mps 572 mmHg 89%
    03:00 +8°C° 0.2 mm 1 mps 572 mmHg 90%
    04:00 +6°C° 0.2 mm 0 mps 572 mmHg 91%
    05:00 +9°C° 0.2 mm 1 mps 572 mmHg 86%
    06:00 +10°C° 0.2 mm 1 mps 573 mmHg 80%
    07:00 +12°C° 0.2 mm 1 mps 574 mmHg 75%
    08:00 +13°C° 0.6 mm 1 mps 574 mmHg 68%
    09:00 +14°C° 0.6 mm 1 mps 575 mmHg 61%
    10:00 +15°C° 0.6 mm 1 mps 575 mmHg 53%
    11:00 +16°C° 0.8 mm 1 mps 575 mmHg 50%
    12:00 +17°C° 0.8 mm 2 mps 575 mmHg 47%
    13:00 +18°C° 0.8 mm 2 mps 576 mmHg 44%
    14:00 +17°C° 1.5 mm 2 mps 575 mmHg 47%
    15:00 +17°C° 1.5 mm 2 mps 575 mmHg 49%
    16:00 +16°C° 1.5 mm 3 mps 574 mmHg 52%
    17:00 +16°C° 1 mm 3 mps 574 mmHg 53%
    18:00 +14°C° 1 mm 3 mps 575 mmHg 54%
    19:00 +14°C° 1 mm 3 mps 575 mmHg 55%
    20:00 +12°C° 0.3 mm 3 mps 574 mmHg 61%
    21:00 +12°C° 0.3 mm 2 mps 574 mmHg 67%
    22:00 +9°C° 0.3 mm 2 mps 574 mmHg 73%
    23:00 +8°C° 0 mm 2 mps 573 mmHg 75%

    22 June, Friday

    Time Temperature Precipitation Wind Pressure Humidity
    00:00 +8°C° 0 mm 2 mps 573 mmHg 77%
    01:00 +8°C° 0 mm 1 mps 573 mmHg 78%
    02:00 +7°C° 0 mm 1 mps 573 mmHg 80%
    03:00 +7°C° 0 mm 1 mps 573 mmHg 82%
    04:00 +6°C° 0 mm 1 mps 573 mmHg 84%
    05:00 +8°C° 0 mm 1 mps 574 mmHg 79%
    06:00 +9°C° 0 mm 1 mps 574 mmHg 74%
    07:00 +10°C° 0 mm 1 mps 575 mmHg 69%
    08:00 +10°C° 0 mm 2 mps 575 mmHg 59%
    09:00 +12°C° 0 mm 2 mps 576 mmHg 50%
    10:00 +12°C° 0 mm 3 mps 576 mmHg 41%
    11:00 +13°C° 0 mm 3 mps 576 mmHg 39%
    12:00 +14°C° 0 mm 4 mps 576 mmHg 38%
    13:00 +15°C° 0 mm 5 mps 576 mmHg 37%
    14:00 +15°C° 0.1 mm 5 mps 576 mmHg 36%
    15:00 +15°C° 0.1 mm 5 mps 576 mmHg 36%
    16:00 +15°C° 0.1 mm 5 mps 576 mmHg 36%
    17:00 +15°C° 0 mm 4 mps 576 mmHg 36%
    18:00 +14°C° 0 mm 4 mps 576 mmHg 37%
    19:00 +14°C° 0 mm 3 mps 576 mmHg 37%
    20:00 +13°C° 0 mm 2 mps 575 mmHg 44%
    21:00 +11°C° 0 mm 1 mps 575 mmHg 51%
    22:00 +8°C° 0 mm 0 mps 574 mmHg 59%
    23:00 +7°C° 0 mm 0 mps 574 mmHg 61%

    23 June, Saturday

    Time Temperature Precipitation Wind Pressure Humidity
    00:00 +6°C° 0 mm 0 mps 573 mmHg 63%
    01:00 +6°C° 0 mm 0 mps 573 mmHg 66%
    02:00 +5°C° 0 mm 0 mps 573 mmHg 68%
    03:00 +5°C° 0 mm 0 mps 572 mmHg 69%
    04:00 +5°C° 0 mm 0 mps 572 mmHg 71%
    05:00 +8°C° 0 mm 1 mps 573 mmHg 63%
    06:00 +10°C° 0 mm 1 mps 574 mmHg 55%
    07:00 +12°C° 0 mm 1 mps 575 mmHg 48%
    08:00 +13°C° 0 mm 1 mps 576 mmHg 43%
    09:00 +15°C° 0 mm 1 mps 576 mmHg 38%
    10:00 +16°C° 0 mm 1 mps 576 mmHg 34%
    11:00 +18°C° 0 mm 1 mps 576 mmHg 31%
    12:00 +19°C° 0 mm 1 mps 576 mmHg 28%
    13:00 +20°C° 0 mm 1 mps 576 mmHg 26%
    14:00 +20°C° 0 mm 1 mps 576 mmHg 25%
    15:00 +20°C° 0 mm 1 mps 576 mmHg 24%
    16:00 +21°C° 0 mm 1 mps 576 mmHg 23%
    17:00 +20°C° 0 mm 1 mps 576 mmHg 25%
    18:00 +20°C° 0 mm 1 mps 576 mmHg 26%
    19:00 +20°C° 0 mm 1 mps 576 mmHg 28%
    20:00 +16°C° 0 mm 1 mps 575 mmHg 34%
    21:00 +14°C° 0 mm 1 mps 574 mmHg 39%
    22:00 +12°C° 0 mm 1 mps 573 mmHg 45%
    23:00 +12°C° 0 mm 1 mps 572 mmHg 47%

    24 June, Sunday

    Time Temperature Precipitation Wind Pressure Humidity
    00:00 +10°C° 0 mm 2 mps 572 mmHg 50%
    01:00 +10°C° 0 mm 2 mps 572 mmHg 52%
    02:00 +10°C° 0 mm 1 mps 572 mmHg 54%
    03:00 +10°C° 0 mm 1 mps 572 mmHg 56%
    04:00 +9°C° 0 mm 1 mps 571 mmHg 58%
    05:00 +10°C° 0 mm 1 mps 572 mmHg 54%
    06:00 +12°C° 0 mm 1 mps 573 mmHg 50%
    07:00 +13°C° 0 mm 1 mps 574 mmHg 47%
    08:00 +14°C° 0.1 mm 1 mps 574 mmHg 45%
    09:00 +15°C° 0.1 mm 1 mps 575 mmHg 43%
    10:00 +16°C° 0.1 mm 1 mps 575 mmHg 41%
    11:00 +16°C° 0.5 mm 1 mps 575 mmHg 41%
    12:00 +17°C° 0.5 mm 2 mps 575 mmHg 41%
    13:00 +17°C° 0.5 mm 2 mps 575 mmHg 41%
    14:00 +16°C° 1.2 mm 2 mps 575 mmHg 45%
    15:00 +16°C° 1.2 mm 2 mps 574 mmHg 50%
    16:00 +15°C° 1.2 mm 2 mps 574 mmHg 54%
    17:00 +14°C° 1.1 mm 2 mps 574 mmHg 59%
    18:00 +13°C° 1.1 mm 2 mps 573 mmHg 65%
    19:00 +12°C° 1.1 mm 2 mps 573 mmHg 70%
    20:00 +10°C° 0.8 mm 2 mps 573 mmHg 75%
    21:00 +10°C° 0.8 mm 1 mps 573 mmHg 80%
    22:00 +9°C° 0.8 mm 1 mps 572 mmHg 85%
    23:00 +9°C° 0.1 mm 1 mps 572 mmHg 86%
    Show more